Time,TemperatureF,DewpointF,PressureIn,WindDirection,WindDirectionDegrees,WindSpeedMPH,WindSpeedGustMPH,Humidity,HourlyPrecipIn,Conditions,Clouds,dailyrainin,SolarRadiationWatts/m^2,SoftwareType,DateUTC
2016-12-09 00:03:00,20.5,15.6,30.41,West,277,5.0,9.0,81,0.00,,,0.00,0,HR-IXPWINDi_r2_v1.2.,2016-12-09 05:03:00,
2016-12-09 00:08:00,20.4,15.8,30.41,WNW,283,3.0,9.0,82,0.00,,,0.00,0,HR-IXPWINDi_r2_v1.2.,2016-12-09 05:08:00,
2016-12-09 00:13:00,20.3,15.7,30.41,West,279,7.0,9.0,82,0.00,,,0.00,0,HR-IXPWINDi_r2_v1.2.,2016-12-09 05:13:00,
2016-12-09 00:19:00,20.2,15.6,30.41,West,280,4.0,8.0,82,0.00,,,0.00,0,HR-IXPWINDi_r2_v1.2.,2016-12-09 05:19:00,
2016-12-09 00:24:00,20.1,15.5,30.41,West,275,1.0,9.0,82,0.00,,,0.00,0,HR-IXPWINDi_r2_v1.2.,2016-12-09 05:24:00,
2016-12-09 00:29:00,20.0,15.4,30.42,West,276,6.0,9.0,82,0.00,,,0.00,0,HR-IXPWINDi_r2_v1.2.,2016-12-09 05:29:00,
2016-12-09 00:34:00,19.8,15.2,30.42,West,276,3.0,8.0,82,0.00,,,0.00,0,HR-IXPWINDi_r2_v1.2.,2016-12-09 05:34:00,
2016-12-09 00:39:00,19.7,15.4,30.42,WNW,291,4.0,9.0,83,0.00,,,0.00,0,HR-IXPWINDi_r2_v1.2.,2016-12-09 05:39:00,
2016-12-09 00:44:00,19.7,15.4,30.42,West,272,7.0,9.0,83,0.00,,,0.00,0,HR-IXPWINDi_r2_v1.2.,2016-12-09 05:44:00,
2016-12-09 00:49:00,19.7,15.1,30.43,WNW,295,6.0,9.0,82,0.00,,,0.00,0,HR-IXPWINDi_r2_v1.2.,2016-12-09 05:49:00,
2016-12-09 00:54:00,19.7,15.4,30.43,West,281,3.0,8.0,83,0.00,,,0.00,0,HR-IXPWINDi_r2_v1.2.,2016-12-09 05:54:00,
2016-12-09 00:59:00,19.5,15.2,30.43,West,281,2.0,8.0,83,0.00,,,0.00,0,HR-IXPWINDi_r2_v1.2.,2016-12-09 05:59:00,
2016-12-09 01:04:00,19.5,15.2,30.43,WNW,284,2.0,9.0,83,0.00,,,0.00,0,HR-IXPWINDi_r2_v1.2.,2016-12-09 06:04:00,
2016-12-09 01:09:00,19.4,15.1,30.43,West,273,5.0,9.0,83,0.00,,,0.00,0,HR-IXPWINDi_r2_v1.2.,2016-12-09 06:09:00,
2016-12-09 01:14:00,19.3,15.0,30.43,WNW,282,3.0,7.0,83,0.00,,,0.00,0,HR-IXPWINDi_r2_v1.2.,2016-12-09 06:14:00,
2016-12-09 01:19:00,19.2,15.2,30.43,West,275,5.0,7.0,84,0.00,,,0.00,0,HR-IXPWINDi_r2_v1.2.,2016-12-09 06:19:00,
2016-12-09 01:24:00,19.2,14.9,30.43,WNW,287,5.0,9.0,83,0.00,,,0.00,0,HR-IXPWINDi_r2_v1.2.,2016-12-09 06:24:00,
2016-12-09 01:29:00,19.2,14.9,30.43,West,278,5.0,9.0,83,0.00,,,0.00,0,HR-IXPWINDi_r2_v1.2.,2016-12-09 06:29:00,
2016-12-09 01:34:00,19.1,15.1,30.43,West,278,5.0,7.0,84,0.00,,,0.00,0,HR-IXPWINDi_r2_v1.2.,2016-12-09 06:34:00,
2016-12-09 01:39:00,19.1,14.8,30.43,West,273,4.0,11.0,83,0.00,,,0.00,0,HR-IXPWINDi_r2_v1.2.,2016-12-09 06:39:00,
2016-12-09 01:44:00,19.3,15.0,30.43,West,275,5.0,11.0,83,0.00,,,0.00,0,HR-IXPWINDi_r2_v1.2.,2016-12-09 06:44:00,
2016-12-09 01:49:00,19.2,14.9,30.43,West,269,5.0,9.0,83,0.00,,,0.00,0,HR-IXPWINDi_r2_v1.2.,2016-12-09 06:49:00,
2016-12-09 01:54:00,19.2,14.9,30.43,West,269,4.0,8.0,83,0.00,,,0.00,0,HR-IXPWINDi_r2_v1.2.,2016-12-09 06:54:00,
2016-12-09 01:59:00,19.2,14.9,30.43,West,275,5.0,8.0,83,0.00,,,0.00,0,HR-IXPWINDi_r2_v1.2.,2016-12-09 06:59:00,
2016-12-09 02:04:00,19.2,14.9,30.43,West,275,5.0,8.0,83,0.00,,,0.00,0,HR-IXPWINDi_r2_v1.2.,2016-12-09 07:04:00,
2016-12-09 02:09:00,19.2,14.9,30.43,West,275,5.0,8.0,83,0.00,,,0.00,0,HR-IXPWINDi_r2_v1.2.,2016-12-09 07:09:00,
2016-12-09 02:14:00,19.2,14.9,30.44,West,277,5.0,8.0,83,0.00,,,0.00,0,HR-IXPWINDi_r2_v1.2.,2016-12-09 07:14:00,
2016-12-09 02:19:00,19.2,14.9,30.44,West,272,6.0,9.0,83,0.00,,,0.00,0,HR-IXPWINDi_r2_v1.2.,2016-12-09 07:19:00,
2016-12-09 02:24:00,19.1,15.1,30.44,West,274,5.0,9.0,84,0.00,,,0.00,0,HR-IXPWINDi_r2_v1.2.,2016-12-09 07:24:00,
2016-12-09 02:30:00,19.0,15.0,30.44,West,273,5.0,8.0,84,0.00,,,0.00,0,HR-IXPWINDi_r2_v1.2.,2016-12-09 07:30:00,
2016-12-09 02:35:00,18.9,14.9,30.44,West,273,6.0,9.0,84,0.00,,,0.00,0,HR-IXPWINDi_r2_v1.2.,2016-12-09 07:35:00,
2016-12-09 02:40:00,18.9,14.9,30.44,West,279,5.0,9.0,84,0.00,,,0.00,0,HR-IXPWINDi_r2_v1.2.,2016-12-09 07:40:00,
2016-12-09 02:45:00,18.9,14.9,30.45,West,277,6.0,8.0,84,0.00,,,0.00,0,HR-IXPWINDi_r2_v1.2.,2016-12-09 07:45:00,
2016-12-09 02:50:00,18.9,14.9,30.44,West,263,6.0,8.0,84,0.00,,,0.00,0,HR-IXPWINDi_r2_v1.2.,2016-12-09 07:50:00,
2016-12-09 02:55:00,18.9,14.9,30.45,West,266,6.0,9.0,84,0.00,,,0.00,0,HR-IXPWINDi_r2_v1.2.,2016-12-09 07:55:00,
2016-12-09 03:00:00,18.8,14.8,30.45,West,275,4.0,9.0,84,0.00,,,0.00,0,HR-IXPWINDi_r2_v1.2.,2016-12-09 08:00:00,
2016-12-09 03:05:00,18.8,14.8,30.45,West,273,4.0,8.0,84,0.00,,,0.00,0,HR-IXPWINDi_r2_v1.2.,2016-12-09 08:05:00,
2016-12-09 03:10:00,18.8,14.8,30.45,West,279,5.0,8.0,84,0.00,,,0.00,0,HR-IXPWINDi_r2_v1.2.,2016-12-09 08:10:00,
2016-12-09 03:15:00,18.7,14.7,30.45,West,281,5.0,8.0,84,0.00,,,0.00,0,HR-IXPWINDi_r2_v1.2.,2016-12-09 08:15:00,
2016-12-09 03:20:00,18.6,14.6,30.45,WSW,257,6.0,9.0,84,0.00,,,0.00,0,HR-IXPWINDi_r2_v1.2.,2016-12-09 08:20:00,
2016-12-09 03:25:00,18.7,15.0,30.45,West,274,6.0,9.0,85,0.00,,,0.00,0,HR-IXPWINDi_r2_v1.2.,2016-12-09 08:25:00,
2016-12-09 03:30:00,18.6,14.9,30.45,West,271,7.0,9.0,85,0.00,,,0.00,0,HR-IXPWINDi_r2_v1.2.,2016-12-09 08:30:00,
2016-12-09 03:35:00,18.7,15.0,30.45,West,277,3.0,8.0,85,0.00,,,0.00,0,HR-IXPWINDi_r2_v1.2.,2016-12-09 08:35:00,
2016-12-09 03:40:00,18.7,15.0,30.45,West,271,5.0,10.0,85,0.00,,,0.00,0,HR-IXPWINDi_r2_v1.2.,2016-12-09 08:40:00,
2016-12-09 03:45:00,18.8,15.1,30.45,West,271,5.0,10.0,85,0.00,,,0.00,0,HR-IXPWINDi_r2_v1.2.,2016-12-09 08:45:00,
2016-12-09 03:50:00,18.7,15.0,30.46,West,275,5.0,10.0,85,0.00,,,0.00,0,HR-IXPWINDi_r2_v1.2.,2016-12-09 08:50:00,
2016-12-09 03:55:00,18.7,15.0,30.46,West,281,4.0,8.0,85,0.00,,,0.00,0,HR-IXPWINDi_r2_v1.2.,2016-12-09 08:55:00,
2016-12-09 04:00:00,18.7,15.0,30.45,West,269,4.0,8.0,85,0.00,,,0.00,0,HR-IXPWINDi_r2_v1.2.,2016-12-09 09:00:00,
2016-12-09 04:05:00,18.7,15.0,30.45,West,271,5.0,9.0,85,0.00,,,0.00,0,HR-IXPWINDi_r2_v1.2.,2016-12-09 09:05:00,
2016-12-09 04:10:00,18.7,15.0,30.45,West,260,5.0,9.0,85,0.00,,,0.00,0,HR-IXPWINDi_r2_v1.2.,2016-12-09 09:10:00,
2016-12-09 04:15:00,18.6,14.9,30.45,West,265,6.0,9.0,85,0.00,,,0.00,0,HR-IXPWINDi_r2_v1.2.,2016-12-09 09:15:00,
2016-12-09 04:20:00,18.5,14.8,30.46,West,265,4.0,9.0,85,0.00,,,0.00,0,HR-IXPWINDi_r2_v1.2.,2016-12-09 09:20:00,
2016-12-09 04:25:00,18.4,14.7,30.46,West,265,5.0,9.0,85,0.00,,,0.00,0,HR-IXPWINDi_r2_v1.2.,2016-12-09 09:25:00,
2016-12-09 04:30:00,18.4,14.9,30.46,West,261,4.0,9.0,86,0.00,,,0.00,0,HR-IXPWINDi_r2_v1.2.,2016-12-09 09:30:00,
2016-12-09 04:35:00,18.3,14.8,30.46,West,269,5.0,7.0,86,0.00,,,0.00,0,HR-IXPWINDi_r2_v1.2.,2016-12-09 09:35:00,
2016-12-09 04:40:00,18.3,14.8,30.46,West,270,4.0,7.0,86,0.00,,,0.00,0,HR-IXPWINDi_r2_v1.2.,2016-12-09 09:40:00,
2016-12-09 04:45:00,18.2,14.8,30.46,West,269,3.0,6.0,86,0.00,,,0.00,0,HR-IXPWINDi_r2_v1.2.,2016-12-09 09:45:00,
2016-12-09 04:50:00,18.1,14.9,30.46,West,264,4.0,6.0,87,0.00,,,0.00,0,HR-IXPWINDi_r2_v1.2.,2016-12-09 09:50:00,
2016-12-09 04:55:00,18.1,14.9,30.46,West,265,3.0,6.0,87,0.00,,,0.00,0,HR-IXPWINDi_r2_v1.2.,2016-12-09 09:55:00,
2016-12-09 05:00:00,18.0,14.8,30.46,West,265,0.0,6.0,87,0.00,,,0.00,0,HR-IXPWINDi_r2_v1.2.,2016-12-09 10:00:00,
2016-12-09 05:05:00,17.9,14.7,30.46,West,265,4.0,5.0,87,0.00,,,0.00,0,HR-IXPWINDi_r2_v1.2.,2016-12-09 10:05:00,
2016-12-09 05:10:00,18.0,14.8,30.46,West,266,5.0,6.0,87,0.00,,,0.00,0,HR-IXPWINDi_r2_v1.2.,2016-12-09 10:10:00,
2016-12-09 05:16:00,18.0,15.1,30.46,West,266,4.0,6.0,88,0.00,,,0.00,0,HR-IXPWINDi_r2_v1.2.,2016-12-09 10:16:00,
2016-12-09 05:21:00,18.1,14.9,30.47,West,267,3.0,6.0,87,0.00,,,0.00,0,HR-IXPWINDi_r2_v1.2.,2016-12-09 10:21:00,
2016-12-09 05:26:00,18.1,14.9,30.47,West,267,5.0,6.0,87,0.00,,,0.00,0,HR-IXPWINDi_r2_v1.2.,2016-12-09 10:26:00,
2016-12-09 05:36:00,18.2,15.0,30.47,West,268,4.0,6.0,87,0.00,,,0.00,0,HR-IXPWINDi_r2_v1.2.,2016-12-09 10:36:00,
2016-12-09 05:41:00,18.3,15.1,30.47,West,267,4.0,8.0,87,0.00,,,0.00,0,HR-IXPWINDi_r2_v1.2.,2016-12-09 10:41:00,
2016-12-09 05:46:00,18.3,15.1,30.48,WNW,283,5.0,8.0,87,0.00,,,0.00,0,HR-IXPWINDi_r2_v1.2.,2016-12-09 10:46:00,
2016-12-09 05:51:00,18.3,15.1,30.48,West,270,4.0,7.0,87,0.00,,,0.00,0,HR-IXPWINDi_r2_v1.2.,2016-12-09 10:51:00,
2016-12-09 05:56:00,18.3,15.1,30.48,West,269,6.0,9.0,87,0.00,,,0.00,0,HR-IXPWINDi_r2_v1.2.,2016-12-09 10:56:00,
2016-12-09 06:01:00,18.4,15.2,30.49,WSW,254,5.0,9.0,87,0.00,,,0.00,0,HR-IXPWINDi_r2_v1.2.,2016-12-09 11:01:00,
2016-12-09 06:06:00,18.3,15.1,30.48,West,259,3.0,8.0,87,0.00,,,0.00,0,HR-IXPWINDi_r2_v1.2.,2016-12-09 11:06:00,
2016-12-09 06:11:00,18.1,14.9,30.49,West,260,2.0,7.0,87,0.00,,,0.00,0,HR-IXPWINDi_r2_v1.2.,2016-12-09 11:11:00,
2016-12-09 06:16:00,18.1,14.9,30.49,West,271,4.0,7.0,87,0.00,,,0.00,0,HR-IXPWINDi_r2_v1.2.,2016-12-09 11:16:00,
2016-12-09 06:21:00,18.1,15.2,30.49,West,268,3.0,7.0,88,0.00,,,0.00,0,HR-IXPWINDi_r2_v1.2.,2016-12-09 11:21:00,
2016-12-09 06:26:00,18.1,15.2,30.49,WSW,258,4.0,8.0,88,0.00,,,0.00,0,HR-IXPWINDi_r2_v1.2.,2016-12-09 11:26:00,
2016-12-09 06:31:00,18.0,15.1,30.49,WSW,258,3.0,8.0,88,0.00,,,0.00,0,HR-IXPWINDi_r2_v1.2.,2016-12-09 11:31:00,
2016-12-09 06:36:00,17.9,15.0,30.49,West,267,4.0,7.0,88,0.00,,,0.00,0,HR-IXPWINDi_r2_v1.2.,2016-12-09 11:36:00,
2016-12-09 06:41:00,17.8,14.9,30.49,West,266,3.0,7.0,88,0.00,,,0.00,0,HR-IXPWINDi_r2_v1.2.,2016-12-09 11:41:00,
2016-12-09 06:46:00,17.8,14.9,30.49,West,266,3.0,7.0,88,0.00,,,0.00,0,HR-IXPWINDi_r2_v1.2.,2016-12-09 11:46:00,
2016-12-09 06:51:00,17.6,14.9,30.49,West,266,3.0,5.0,89,0.00,,,0.00,0,HR-IXPWINDi_r2_v1.2.,2016-12-09 11:51:00,
2016-12-09 06:56:00,17.6,14.9,30.49,West,266,5.0,5.0,89,0.00,,,0.00,0,HR-IXPWINDi_r2_v1.2.,2016-12-09 11:56:00,